Time,TemperatureF,DewpointF,PressureIn,WindDirection,WindDirectionDegrees,WindSpeedMPH,WindSpeedGustMPH,Humidity,HourlyPrecipIn,Conditions,Clouds,dailyrainin,SoftwareType,DateUTC
2013-06-02 00:00:00,44.0,-99.9,-100.00,South,185,1.0,6.0,-999,-99.99,,,-99.99,,2013-06-02 06:00:00,
2013-06-02 00:01:00,42.0,-99.9,-100.00,South,185,6.0,7.0,-999,-99.99,,,-99.99,,2013-06-02 06:01:00,
2013-06-02 00:52:00,44.0,-99.9,-100.00,South,185,1.0,6.0,-999,-99.99,,,-99.99,,2013-06-02 06:52:00,
2013-06-02 01:52:00,37.0,-99.9,-100.00,South,185,2.0,3.0,-999,-99.99,,,-99.99,,2013-06-02 07:52:00,
2013-06-02 02:00:00,35.0,-99.9,-100.00,South,185,2.0,5.0,-999,-99.99,,,-99.99,,2013-06-02 08:00:00,
2013-06-02 02:02:00,37.0,-99.9,-100.00,South,185,2.0,3.0,-999,-99.99,,,-99.99,,2013-06-02 08:02:00,
2013-06-02 02:52:00,35.0,-99.9,-100.00,South,185,2.0,5.0,-999,-99.99,,,-99.99,,2013-06-02 08:52:00,
2013-06-02 03:00:00,33.0,-99.9,-100.00,South,185,2.0,3.0,-999,-99.99,,,-99.99,,2013-06-02 09:00:00,
2013-06-02 03:53:00,33.0,-99.9,-100.00,South,185,2.0,3.0,-999,-99.99,,,-99.99,,2013-06-02 09:53:00,
2013-06-02 04:00:00,33.0,-99.9,-100.00,South,185,2.0,6.0,-999,-99.99,,,-99.99,,2013-06-02 10:00:00,
2013-06-02 04:53:00,33.0,-99.9,-100.00,South,185,2.0,6.0,-999,-99.99,,,-99.99,,2013-06-02 10:53:00,
2013-06-02 05:00:00,32.0,-99.9,-100.00,South,185,1.0,2.0,-999,-99.99,,,-99.99,,2013-06-02 11:00:00,
2013-06-02 05:52:00,32.0,-99.9,-100.00,South,185,1.0,2.0,-999,-99.99,,,-99.99,,2013-06-02 11:52:00,
2013-06-02 06:53:00,33.0,-99.9,-100.00,South,185,4.0,5.0,-999,-99.99,,,-99.99,,2013-06-02 12:53:00,
2013-06-02 07:00:00,42.0,-99.9,-100.00,South,185,2.0,2.0,-999,-99.99,,,-99.99,,2013-06-02 13:00:00,
2013-06-02 07:01:00,33.0,-99.9,-100.00,South,185,4.0,5.0,-999,-99.99,,,-99.99,,2013-06-02 13:01:00,
2013-06-02 07:52:00,42.0,-99.9,-100.00,South,185,2.0,2.0,-999,-99.99,,,-99.99,,2013-06-02 13:52:00,
2013-06-02 08:00:00,48.0,-99.9,-100.00,South,185,2.0,4.0,-999,-99.99,,,-99.99,,2013-06-02 14:00:00,
2013-06-02 08:52:00,48.0,-99.9,-100.00,South,185,2.0,4.0,-999,-99.99,,,-99.99,,2013-06-02 14:52:00,
2013-06-02 09:53:00,55.0,-99.9,-100.00,South,185,5.0,11.0,-999,-99.99,,,-99.99,,2013-06-02 15:53:00,
2013-06-02 10:00:00,59.0,-99.9,-100.00,South,185,8.0,14.0,-999,-99.99,,,-99.99,,2013-06-02 16:00:00,
2013-06-02 10:04:00,55.0,-99.9,-100.00,South,185,5.0,11.0,-999,-99.99,,,-99.99,,2013-06-02 16:04:00,
2013-06-02 10:53:00,59.0,-99.9,-100.00,South,185,8.0,14.0,-999,-99.99,,,-99.99,,2013-06-02 16:53:00,
2013-06-02 11:00:00,59.0,-99.9,-100.00,South,185,4.0,12.0,-999,-99.99,,,-99.99,,2013-06-02 17:00:00,
2013-06-02 11:52:00,59.0,-99.9,-100.00,South,185,4.0,12.0,-999,-99.99,,,-99.99,,2013-06-02 17:52:00,
2013-06-02 12:00:00,64.0,-99.9,-100.00,South,185,7.0,16.0,-999,-99.99,,,-99.99,,2013-06-02 18:00:00,
2013-06-02 12:52:00,64.0,-99.9,-100.00,South,185,7.0,16.0,-999,-99.99,,,-99.99,,2013-06-02 18:52:00,
2013-06-02 13:00:00,68.0,-99.9,-100.00,South,185,4.0,15.0,-999,-99.99,,,-99.99,,2013-06-02 19:00:00,
2013-06-02 13:52:00,68.0,-99.9,-100.00,South,185,4.0,15.0,-999,-99.99,,,-99.99,,2013-06-02 19:52:00,
2013-06-02 14:52:00,68.0,-99.9,-100.00,South,185,4.0,17.0,-999,-99.99,,,-99.99,,2013-06-02 20:52:00,
2013-06-02 15:02:00,68.0,-99.9,-100.00,South,185,4.0,17.0,-999,-99.99,,,-99.99,,2013-06-02 21:02:00,
2013-06-02 15:53:00,71.0,-99.9,-100.00,South,185,9.0,15.0,-999,-99.99,,,-99.99,,2013-06-02 21:53:00,
2013-06-02 16:03:00,71.0,-99.9,-100.00,South,185,9.0,15.0,-999,-99.99,,,-99.99,,2013-06-02 22:03:00,
2013-06-02 16:53:00,73.0,-99.9,-100.00,South,185,6.0,21.0,-999,-99.99,,,-99.99,,2013-06-02 22:53:00,
2013-06-02 17:00:00,73.0,-99.9,-100.00,South,185,9.0,18.0,-999,-99.99,,,-99.99,,2013-06-02 23:00:00,
2013-06-02 17:03:00,73.0,-99.9,-100.00,South,185,6.0,21.0,-999,-99.99,,,-99.99,,2013-06-02 23:03:00,
2013-06-02 17:53:00,73.0,-99.9,-100.00,South,185,9.0,18.0,-999,-99.99,,,-99.99,,2013-06-02 23:53:00,
2013-06-02 18:52:00,73.0,-99.9,-100.00,South,185,9.0,19.0,-999,-99.99,,,-99.99,,2013-06-03 00:52:00,
2013-06-02 19:01:00,73.0,-99.9,-100.00,South,185,9.0,19.0,-999,-99.99,,,-99.99,,2013-06-03 01:01:00,
2013-06-02 19:52:00,69.0,-99.9,-100.00,South,185,5.0,19.0,-999,-99.99,,,-99.99,,2013-06-03 01:52:00,
2013-06-02 20:00:00,64.0,-99.9,-100.00,South,185,7.0,13.0,-999,-99.99,,,-99.99,,2013-06-03 02:00:00,
2013-06-02 20:02:00,69.0,-99.9,-100.00,South,185,5.0,19.0,-999,-99.99,,,-99.99,,2013-06-03 02:02:00,
2013-06-02 20:52:00,64.0,-99.9,-100.00,South,185,7.0,13.0,-999,-99.99,,,-99.99,,2013-06-03 02:52:00,
2013-06-02 21:00:00,59.0,-99.9,-100.00,South,185,10.0,14.0,-999,-99.99,,,-99.99,,2013-06-03 03:00:00,
2013-06-02 21:53:00,59.0,-99.9,-100.00,South,185,10.0,14.0,-999,-99.99,,,-99.99,,2013-06-03 03:53:00,
2013-06-02 22:00:00,55.0,-99.9,-100.00,South,185,9.0,15.0,-999,-99.99,,,-99.99,,2013-06-03 04:00:00,
2013-06-02 22:53:00,55.0,-99.9,-100.00,South,185,9.0,15.0,-999,-99.99,,,-99.99,,2013-06-03 04:53:00,
2013-06-02 23:00:00,53.0,-99.9,-100.00,South,185,7.0,11.0,-999,-99.99,,,-99.99,,2013-06-03 05:00:00,
2013-06-02 23:52:00,53.0,-99.9,-100.00,South,185,7.0,11.0,-999,-99.99,,,-99.99,,2013-06-03 05:52:00,